Weather in Gagarinsky

Russia / Oryol Oblast     52°55′34″N   35°43′25″E
temp.,
°C
wind,
m/s
gust,
m/s
humid.,
%
clouds,
%
prec.,
mm/h
press.,
hPa
HPBL,
m
18 april, sun
sun1800:00+4wsw3792100 0.0 1018355
03:00+4wsw1191100 0.1 101840
06:00+5ne229299 0.1 101867
09:00+6e3483100 0.1 1018458
12:00+8ese2370100 0.1 10181019
15:00+10ne3465100 0.6 10181100
18:00+9ne346841 0.9 1018925
21:00+5nne4891100 1.1 1019205
19 april, mon
mon1900:00+5n3697100 0.0 1019153
03:00+4n36958 0.0 1019105
06:00+4nne499772 0.0 1018206
09:00+7ne579094 0.0 1019479
12:00+8ne5679100 0.1 1019777
15:00+8ne6882100 0.6 1019655
18:00+6ne7991100 0.1 1019600
21:00+4ne5996100 0.1 1020471
20 april, tue
tue2000:00+4ne5897100 0.0 1019412
03:00+4ne4997100 0.0 1018393
06:00+4ene51096100 0.0 1016444
09:00+6ene699098 0.1 1016481
12:00+8ene7883100 0.1 1014821
15:00+9ene71084100 0.1 1011837
18:00+6ne81391100 0.9 1008710
21:00+3ne81497100 5.6 1005738
21 april, wed
wed2100:00+1n71499100 5.9 1000439
03:00+1nw61199100 9.6 998383
06:00+1w61198100 1.8 1000568
09:00+1w81395100 1.8 1004719
12:00+4wsw71291100 0.0 10071019
15:00+6wsw6118292 0.1 1009979
18:00+7wsw61178100 0.1 1011754
21:00+4ssw410895 0.1 1014194
22 april, thu
thu2200:00+3ssw513885 0.0 1015259
03:00+3ssw4128955 0.0 1016233
06:00+3ssw4119298 0.1 1017205
09:00+7ssw5882100 0.1 1017345
12:00+11ssw797099 0.2 10181233
15:00+12s797293 1.2 1017968
18:00+11s597725 0.3 1017758
21:00+8sse499163 0.5 1017156